Regional Weather Roundup
Issued by NWS Sterling, VA

Home | Current Version | Previous Version | Text Only | Print | Product List | Glossary On
Versions: 1 2 3 4 5 6 7 8 9 10 11 12 13 14 15 16 17 18 19 20 21 22 23 24 25 26 27 28 29 30 31 32 33 34 35 36 37 38 39 40 41 42 43 44 45 46 47 48 49 50
000
ASUS41 KLWX 271110
RWRLWX

REGIONAL WEATHER ROUNDUP
NATIONAL WEATHER SERVICE BALTIMORE MD/WASHINGTON DC
700 AM EDT WED MAY 27 2015

Note: "FAIR" indicates few or no clouds below 12,000 feet
with no significant weather and/or obstructions to visibility.
 TC=TEMPERATURE CELSIUS

 * =Non NWS site. Station does not report precipitation (e.g. rain,
    snow, etc.), thunder, or fog.

DCZ001-MDZ009-015-VAZ040>042-051-053>054-271200-
WASHINGTON METRO

CITY           SKY/WX    TMP DP  RH WIND       PRES   REMARKS
WASHINGTON NAT MOSUNNY   75  70  83 S10       30.16R
DULLES         PTSUNNY   72  68  87 S7        30.15R
ANDREWS AFB    CLOUDY    73  69  90 S10       30.16R
FT BELVOIR     PTSUNNY   74  69  84 SE7       30.16R
QUANTICO       PTSUNNY   74  68  81 S13       30.17R
COLLEGE PARK*  MOSUNNY   73  70  88 S5        30.15R
LEESBURG*      CLOUDY    72  70  94 SW3       30.16R
MANASSAS*      CLOUDY    73  70  88 S7          N/A
GAITHERSBURG*  CLOUDY    73  66  78 S6        30.20R

$$

MDZ006>007-011-014-271200-
BALTIMORE METRO

CITY           SKY/WX    TMP DP  RH WIND       PRES   REMARKS
BWI AIRPORT    PTSUNNY   73  68  83 S6        30.15R
MD SCIENCE CTR   N/A     73  68  84 MISG      30.16R
MARTIN STATE   MOSUNNY   72  72 100 SE12      30.17R
ANNAPOLIS      CLOUDY    72  67  84 S7        30.17R
FORT MEADE*    PTSUNNY   70  66  88 S3        30.18R

$$

MDZ012-015-019>023-271200-
MARYLAND EASTERN SHORE

CITY           SKY/WX    TMP DP  RH WIND       PRES   REMARKS
OCEAN CITY     SUNNY     66  63  90 VRB6      30.22R
SALISBURY      MOSUNNY   71  67  87 S9        30.20S
BAY BRIDGE AP*   N/A    N/A N/A N/A S8        30.17R
CAMBRIDGE*     PTSUNNY   72  68  88 S8        30.19R
EASTON*        MOSUNNY   72  72 100 S7        30.22R

$$

MDZ017>025-271200-
SOUTHERN MARYLAND

CITY           SKY/WX    TMP DP  RH WIND       PRES   REMARKS
PATUXENT RIVER PTSUNNY   72  67  84 S9        30.18R
ST INIGOES     MOSUNNY   72  68  87 S6        30.18R
LEONARDTOWN*   MOSUNNY   72  64  78 S8        30.20R

$$

MDZ003>005-271200-
NORTH CENTRAL MARYLAND

CITY           SKY/WX    TMP DP  RH WIND       PRES   REMARKS
FREDERICK*     PTSUNNY   72  70  94 SW3       30.17R
HAGERSTOWN APT SUNNY     71  66  84 SW3       30.14R
WESTMINSTER*   SUNNY     72  66  83 S5        30.16R

$$

MDZ501>502-271200-
WESTERN MARYLAND

CITY           SKY/WX    TMP DP  RH WIND       PRES   REMARKS
OAKLAND*       CLOUDY    61 N/A N/A SW8       30.20S
CUMBERLAND*    MOSUNNY   63  63 100 SW3       30.18R

$$

VAZ025>031-271200-
SHENANDOAH VALLEY

CITY           SKY/WX    TMP DP  RH WIND       PRES   REMARKS
WINCHESTER*    PTSUNNY   70  64  83 SW5       30.15R
FRONT ROYAL*   FAIR      64  64 100 CALM      30.14R
LURAY*         FAIR      70  70 100 CALM      30.15R
NEW MARKET*    FAIR      68  65  91 SW3       30.14R
STAUNTON*      MOSUNNY   63  62  95 CALM      30.19R FOG
WAYNESBORO*    FAIR      65  64  97 CALM      30.18R

$$

WVZ021-048>050-054>055-271200-
EASTERN WEST VIRGINIA PANHANDLE

CITY           SKY/WX    TMP DP  RH WIND       PRES   REMARKS
MARTINSBURG    MOSUNNY   68  66  93 CALM      30.14R FOG
PETERSBURG*    MOSUNNY   64  61  90 CALM      30.16R FOG

$$

VAZ036>039-050-271200-
CENTRAL FOOTHILLS

CITY           SKY/WX    TMP DP  RH WIND       PRES   REMARKS
CHARLOTTESVILL MOSUNNY   71  68  90 S9        30.16R
CULPEPER*      CLOUDY    72  68  89 S5        30.16S
ORANGE*        CLOUDY    72  68  88 S7        30.18R
GORDONSVILLE*  CLOUDY    71  68  92 S9        30.16R
WARRENTON*     FAIR      74  71  91 S6        30.15S

$$

VAZ055>057-271200-
NORTH AND CENTRAL PIEDMONT

CITY           SKY/WX    TMP DP  RH WIND       PRES   REMARKS
FREDERICKSBRG* MOSUNNY   73  72  96 S5        30.16R
STAFFORD*      PTSUNNY   72  67  85 CALM      30.21R

$$

NCZ024-NYZ072-PAZ021-071-VAZ022-071-271200-
OTHER REGIONAL OBSERVATIONS

CITY           SKY/WX    TMP DP  RH WIND       PRES   REMARKS
NEW YORK CITY  MOSUNNY   72  64  76 VRB3      30.19S
PHILADELPHIA   CLOUDY    73  67  81 S9        30.17S
PITTSBURGH     CLOUDY    66  63  90 S6        30.11R
ROANOKE        PTCLDY    68  63  84 W3        30.22R
RICHMOND       PTSUNNY   73  68  84 S9        30.20R
RALEIGH        MOCLDY    71  68  90 S3        30.22R

$$

ANZ530>537-271200-
MARINE OBSERVATIONS

STATION/POSITION TIME  TEMP    WIND        PRES
                       AIR SEA DIR/SP/G
                 (UTC) (F)     (DEG/KT/KT) (MB)
THOMAS PT LIGHT  1100   70 68  180/ 14/ 15 1022.1R
BALT KEY BRIDGE  1000   72     130/  8/ 10 1020.4F
COVE POINT       1000   69     170/ 11/ 12 1022.4R
LEWISETTA        1000   72 73              1021.6R
SOLOMONS ISLAND  1000      70                N/A
PINEY POINT      1000          210/  9/ 10   N/A

$$



USA.gov is the U.S. government's official web portal to all federal, state and local government web resources and services.